Location: Sungai Kejara
(2.2500°N, 113.9167°E)
Time: 04:10:53
(UTC+00:00)

Daily predictions for brighter satellites

Satellite Brightness Start Highest point End
(mag) Time Altitude Azimuth Time Altitude Azimuth Time Altitude Azimuth
NOSS 2-1 (E) 4.4 10:50:16 10° S 10:54:55 30° ESE 10:58:29 10° NE
CZ-2C R/B 3.3 10:49:58 10° N 10:55:02 59° WNW 11:00:11 10° SSW
Cosmos 2084 3.3 10:55:02 10° SSW 10:59:02 63° ESE 11:02:58 10° NNE
Cosmos 2082 Rocket 3.7 10:55:01 10° SW 11:00:18 43° WNW 11:05:35 10° N
CZ-4B R/B 1.5 10:58:55 10° N 11:02:08 76° WNW 11:05:17 10° SSW
PSLV R/B 4.1 11:00:49 10° NNE 11:04:53 54° ESE 11:09:00 10° S
Spot 2 4.3 11:01:29 10° SSE 11:06:10 79° ENE 11:11:07 10° N
USA 307 3.4 11:06:38 10° NNW 11:10:39 42° ENE 11:14:24 11° SE
Cosmos 2034 Rocket 4.1 11:05:51 10° N 11:12:10 85° E 11:18:33 10° S
YAOGAN 1 3.1 11:14:03 10° SE 11:18:03 37° ENE 11:22:01 10° N
CZ-4 R/B 4.5 11:14:34 10° S 11:18:42 86° W 11:22:48 10° NNW
NOSS 3-2 (A) 4.4 11:13:49 10° NNW 11:22:32 84° WSW 11:31:19 10° SSE
USA 305 2.8 11:18:41 10° NNW 11:22:51 73° ENE 11:26:20 14° SE
Cosmos 1812 Rocket 4.3 11:20:17 10° NNW 11:24:37 56° W 11:28:56 10° S
Centaur Rocket 4.2 11:25:31 10° SSW 11:26:25 12° S 11:27:14 10° SSE
Cosmos 1125 Rocket 3.6 11:22:15 10° N 11:27:26 58° ENE 11:32:35 10° SSE
USA 308 2.8 11:23:46 10° NNW 11:27:58 73° ENE 11:31:06 18° SE
Cosmos 1689 Rocket 2.4 11:25:31 10° NNE 11:28:02 34° E 11:29:53 15° SSE
Cosmos 1680 Rocket 4.4 11:24:01 10° SSE 11:28:26 27° ESE 11:32:50 10° NE
HETE-2 4.5 11:26:29 10° W 11:30:33 72° S 11:32:56 24° E
Cosmos 1825 4.4 11:32:36 10° SW 11:35:49 27° W 11:39:02 10° NNW
NOSS 2-1 (C) 4.2 11:34:05 10° SSW 11:39:14 58° WNW 11:43:03 10° NNE
CENTAUR R/B 3.3 11:31:50 10° NNW 11:40:48 87° WSW 11:49:18 10° SSE
Okean-O 2.9 11:39:27 21° SE 11:42:04 46° ENE 11:46:17 10° N
Cosmos 1076 Rocket 3.6 11:38:46 10° S 11:42:58 54° E 11:47:11 10° NNE
ARIANE 5 R/B 4.0 11:15:15 10° W 11:44:11 81° N 11:46:50 27° E
CZ-4 R/B 1.6 11:40:22 10° S 11:44:30 75° WSW 11:48:41 10° NNW
H-2A R/B 3.5 11:39:36 10° S 11:44:36 39° WSW 11:49:29 10° NW
CSL-04 Rocket 4.4 11:43:07 26° ESE 11:45:06 33° ENE 11:49:54 10° NNE
Cosmos 2058 4.3 11:41:18 10° SSW 11:45:12 40° W 11:49:07 10° NNW
USA 306 3.5 11:43:20 10° NW 11:47:27 52° WSW 11:50:07 20° SSE
Cosmos 1634 Rocket 3.9 11:41:51 10° N 11:47:59 72° E 11:54:08 10° S
ATLAS 3B CENTAUR R/B 3.5 11:46:19 10° WSW 11:49:19 21° SSW 11:52:00 16° SSE
Cosmos 1980 Rocket 4.2 11:48:45 10° NE 11:49:34 12° NE 11:49:34 12° NE
GPS 2-17 Rocket1 3.0 11:46:58 10° WSW 11:51:37 75° SSE 11:53:27 37° E
ARGOS 3.8 11:48:55 10° S 11:54:14 57° WSW 11:59:32 10° NNW
HJ-1C 3.6 11:53:11 27° S 11:54:47 65° WSW 11:58:01 10° NNW
